Voltar ao catálogo

ONEWEB-0720

AtivoComunicaçõesPO
NORAD 55835·PAYLOAD·🇬🇧 United Kingdom

Lançado Mar 9, 2023 de Cape Canaveral Space Force Station

Loading…

Próximas Passagens (próximas 24 horas)

TLE

AtualizadoSource: CelesTrak SupGP

Época: Sep 14, 2026, 17:55 UTC

1 55835C 23029AR  26257.74704120 -.00002789  00000+0 -69756-2 0  2578
2 55835  87.9108 287.1344 0001955  85.3987 312.9819 13.19728722    16

Acompanhe ONEWEB-0720 em tempo real com AllMySat

Download on the App Store